Starlink 4082

operational
NORAD ID: 52658 Int'l Des: 2022-053 Owner: SPXS Country: US Constellation: starlink
LEOCIRCULAR

关于 Starlink 4082

正在加载描述...

实时位置

正在加载3D地球...

即将过境

高度历史

Altitude vs Time

uPlot chart will show altitude changes over time

两行轨道根数

1 52658U 22053C 26034.44879041 .00001030 00000-0 82829-4 0 9997
2 52658 53.2187 307.8361 0001418 93.0262 267.0892 15.08838167206063
Epoch: Feb 3, 2026 • Age: 21 hours

当前状态

高度 545.1 km
速度 7.60 km/s
星下点 52.12°N, 125.49°E
发射日期 May 18, 2022
运行时间 3.7 years
类型 internet

技术详情

分类 Payload
质量 297.00 kg
干质量 275.00 kg
总质量 297.00 kg
长度 0.20 m
直径 2.80 m
跨度 9.00 m
形状 Box + pan
制造商 SPXS
平台类型 Starlink
阶段状态 In Orbit
所有者/国家 SPXS/US

大型星座

Loading constellations...